Dansville, NY

6:33 AM EDT on September 27, 2016 (GMT -0400)
Dansville Municipal

Weather History for KDSV - September, 2013

Change the Weather History Date:

Thursday, September 12, 2013

  Actual Average Record
Temperature  
Mean Temperature 68 °F -  
Max Temperature 77 °F 74 °F 93 °F (1952)
Min Temperature 61 °F 50 °F 35 °F (1967)
Cooling Degree Days 4    
Growing Degree Days 18 (Base 50)    
Moisture  
Dew Point 65 °F    
Average Humidity 85    
Maximum Humidity 100    
Minimum Humidity 71    
Precipitation  
Precipitation 0.26 in - - ()
Sea Level Pressure  
Sea Level Pressure 29.86 in    
Wind  
Wind Speed 4 mph (ESE)    
Max Wind Speed 9 mph    
Max Gust Speed -    
Visibility 9 miles    
Events Rain , Thunderstorm    
Averages and records for this station are not official NWS values.
T = Trace of Precipitation, MM = Missing Value Source: NWS Daily Summary

Daily Weather History Graph

Daily Weather History Graph

Search for Another Location

Airport or City:

Trip Planner

Search our weather history database for the weather conditions in past years. The results will help you decide how hot, cold, wet, or windy it might be!

Date:

Astronomy

Sep. 12, 2013 Rise Set
Actual Time 6:47 AM EDT 7:25 PM EDT
Civil Twilight 6:19 AM EDT 7:53 PM EDT
Nautical Twilight 5:45 AM EDT 8:27 PM EDT
Astronomical Twilight 5:10 AM EDT 9:02 PM EDT
Moon 2:21 PM EDT (9/12) No Moon Set
Length of Visible Light 13h 34m
Length of Day
12h 37m
Waxing Crescent, 50% of the Moon is Illuminated
Sep 12
Waxing Crescent
Sep 12
First Quarter
Sep 19
Full
Sep 26
Last Quarter
Oct 4
New

Hourly Weather History & Observations

Time (EDT) Temp. Dew Point Humidity Pressure Visibility Wind Dir Wind Speed Gust Speed Precip Events Conditions
12:54 AM 73.9 °F 66.0 °F 76% 29.97 in 10.0 mi Variable 3.5 mph - N/A   Clear
1:54 AM 75.9 °F 66.0 °F 71% 29.95 in 10.0 mi North 6.9 mph - N/A   Clear
2:54 AM 72.0 °F 66.9 °F 84% 29.94 in 10.0 mi SSE 5.8 mph - N/A   Partly Cloudy
3:54 AM 73.0 °F 64.9 °F 76% 29.91 in 10.0 mi ESE 4.6 mph - N/A   Clear
4:54 AM 71.1 °F 64.9 °F 81% 29.91 in 10.0 mi SE 9.2 mph - N/A   Clear
5:54 AM 71.1 °F 64.9 °F 81% 29.90 in 10.0 mi SE 8.1 mph - N/A   Mostly Cloudy
6:54 AM 70.0 °F 64.9 °F 84% 29.91 in 10.0 mi Calm Calm - N/A   Mostly Cloudy
7:54 AM 71.1 °F 66.0 °F 84% 29.92 in 10.0 mi SE 8.1 mph - N/A   Overcast
8:54 AM 73.0 °F 66.9 °F 81% 29.91 in 10.0 mi SE 5.8 mph - N/A   Mostly Cloudy
9:54 AM 75.0 °F 66.9 °F 76% 29.88 in 10.0 mi SE 4.6 mph - N/A   Overcast
10:12 AM 75.2 °F 68.0 °F 78% 29.87 in 10.0 mi SE 4.6 mph - N/A   Overcast
10:36 AM 73.4 °F 68.0 °F 83% 29.87 in 1.8 mi NW 5.8 mph - 0.06 in Rain Heavy Rain
10:54 AM 71.1 °F 69.1 °F 93% 29.89 in 1.2 mi NW 3.5 mph - 0.19 in Rain , Thunderstorm Heavy Thunderstorms and Rain
11:04 AM 71.6 °F 69.8 °F 94% 29.88 in 3.0 mi NNW 3.5 mph - 0.01 in Rain , Thunderstorm Light Thunderstorms and Rain
11:22 AM 71.6 °F 69.8 °F 94% 29.87 in 8.0 mi Calm Calm - 0.01 in   Overcast
11:54 AM 73.0 °F 70.0 °F 90% 29.88 in 8.0 mi Calm Calm - 0.01 in   Mostly Cloudy
12:54 PM 75.0 °F 66.0 °F 73% 29.86 in 10.0 mi Calm Calm - N/A   Mostly Cloudy
1:54 PM 75.0 °F 66.9 °F 76% 29.84 in 10.0 mi NNW 4.6 mph - 0.00 in Rain Light Rain
2:54 PM 71.1 °F 66.0 °F 84% 29.83 in 10.0 mi SE 3.5 mph - 0.02 in Rain Light Rain
3:54 PM 70.0 °F 64.9 °F 84% 29.80 in 10.0 mi ENE 3.5 mph - 0.00 in   Overcast
4:54 PM 72.0 °F 63.0 °F 73% 29.78 in 10.0 mi Calm Calm - N/A   Mostly Cloudy
5:54 PM 70.0 °F 64.9 °F 84% 29.78 in 10.0 mi Calm Calm - N/A   Clear
6:54 PM 70.0 °F 66.0 °F 87% 29.78 in 10.0 mi Calm Calm - N/A   Overcast
7:54 PM 64.9 °F 63.0 °F 93% 29.81 in 10.0 mi Calm Calm - 0.04 in   Mostly Cloudy
8:54 PM 64.0 °F 62.1 °F 93% 29.81 in 9.0 mi ESE 3.5 mph - N/A   Mostly Cloudy
9:37 PM 62.6 °F 62.6 °F 100% 29.80 in 10.0 mi Calm Calm - N/A   Partly Cloudy
9:54 PM 63.0 °F 61.0 °F 93% 29.82 in 10.0 mi SSE 3.5 mph - N/A   Clear
10:54 PM 62.1 °F 60.1 °F 93% 29.82 in 10.0 mi Calm Calm - N/A   Mostly Cloudy
11:54 PM 61.0 °F 59.0 °F 93% 29.81 in 10.0 mi Calm Calm - N/A   Clear